AO-07 1 07530U 74089B 20142.90397263 -.00000049 00000-0 -23159-4 0 9990 2 07530 101.7979 112.7951 0012602 056.0216 359.7133 12.53643516082667 UO-11 1 14781U 84021B 20142.91062718 .00000047 00000-0 11886-4 0 9998 2 14781 097.5910 156.2042 0007014 292.9684 067.0790 14.83166480927891 LO-19 1 20442U 90005G 20142.83883093 -.00000016 00000-0 10437-4 0 9994 2 20442 098.6906 090.0000 0010808 230.1016 129.9218 14.32952756584745 HUBBLE 1 20580U 90037B 20142.72718708 .00000341 00000-0 97264-5 0 9994 2 20580 028.4686 136.4324 0002798 158.6912 004.7348 15.09387168451927 MET-2/21 1 22782U 93055A 20142.85352281 .00000041 00000-0 23620-4 0 9998 2 22782 82.5499 254.6849 0021291 311.8673 163.4669 13.83827012349637 AO-27 1 22825U 93061C 20142.92585580 -.00000017 00000-0 11420-4 0 9990 2 22825 098.9236 144.7105 0009540 093.9462 266.2811 14.30085082390022 IO-26 1 22826U 93061D 20142.91849269 -.00000012 00000-0 13342-4 0 9997 2 22826 098.9176 144.6531 0010074 083.4870 276.7458 14.30420536390254 FO-29 1 24278U 96046B 20142.91873172 -.00000061 00000-0 -28195-4 0 9993 2 24278 098.5802 256.2298 0351316 083.6079 280.4937 13.53097738173294 NOAA-15 1 25338U 98030A 20142.91086630 .00000073 00000-0 49231-4 0 9996 2 25338 098.7187 168.0943 0009971 346.6652 013.4263 14.25966316145194 GO-32 1 25397U 98043D 20142.87944148 -.00000029 00000-0 67091-5 0 9994 2 25397 098.7270 084.5808 0002184 114.0001 246.1406 14.23684938135770 ISS 1 25544U 98067A 20142.90229481 .00000780 00000-0 22038-4 0 9998 2 25544 51.6436 118.5646 0001390 343.1779 38.2459 15.49381973227940 NO-44 1 26931U 01043C 20142.67236890 -.00000017 00000-0 25204-4 0 9995 2 26931 067.0510 211.5066 0005847 269.0953 090.9478 14.30577221973245 SO-50 1 27607U 02058C 20142.86953503 -.00000045 00000-0 14147-4 0 9996 2 27607 064.5552 095.6457 0051287 184.4934 175.5716 14.75634622936801 CO-55 1 27844U 03031E 20142.90983441 .00000036 00000-0 36003-4 0 9994 2 27844 098.6821 151.0457 0010844 128.1072 232.1085 14.22238193876324 CO-57 1 27848U 03031J 20142.85839817 .00000028 00000-0 32368-4 0 9990 2 27848 098.6889 151.5495 0010546 139.4420 220.7545 14.21824810876162 RS-22 1 27939U 03042A 20142.85129464 .00000084 00000-0 23714-4 0 9990 2 27939 098.0861 278.0305 0014243 079.9172 280.3640 14.66860762890116 NOAA-18 1 28654U 05018A 20142.88325862 .00000083 00000-0 69789-4 0 9994 2 28654 099.0456 199.0609 0013267 308.4730 051.5251 14.12511918773164 CO-58 1 28895U 05043F 20142.82296584 .00000082 00000-0 24547-4 0 9993 2 28895 098.0056 279.9299 0016860 009.7825 350.3703 14.63768109776715 Falconsat-3 1 30776U 07006E 20142.86981254 .00001879 00000-0 50956-4 0 9992 2 30776 035.4343 090.0786 0003418 291.7599 068.2764 15.37702064732746 CO-65 1 32785U 08021C 20142.71080867 .00000169 00000-0 23754-4 0 9993 2 32785 97.5720 131.9058 0011972 216.7003 143.3395 14.88465809653963 AAUSAT2 1 32788U 08021F 20142.94873705 .00000480 00000-0 48735-4 0 9994 2 32788 097.4912 148.6267 0012772 138.8676 221.3510 14.95042471655359 DO-64 1 32789U 08021G 20142.72118461 .00001127 00000-0 77754-4 0 9994 2 32789 097.4202 186.4554 0013351 053.6707 306.5752 15.07683165657782 CO-66 1 32791U 08021J 20142.69081580 .00000179 00000-0 23401-4 0 9990 2 32791 097.5402 138.0249 0012998 184.8772 175.2322 14.91040224654390 RS-30 1 32953U 08025A 20142.83737323 .00000037 00000-0 19437-3 0 9999 2 32953 082.4994 294.4550 0020098 111.7599 248.5624 12.43095987544328 PRISM 1 33493U 09002B 20142.85200605 .00000984 00000-0 90855-4 0 9990 2 33493 098.1439 082.0423 0016075 138.0934 222.1520 14.97022629615721 NOAA-19 1 33591U 09005A 20142.88528905 .00000058 00000-0 56951-4 0 9992 2 33591 099.1958 147.5421 0014561 146.9479 213.2605 14.12409481581383 TISAT-1 1 36799U 10035E 20142.46511614 .00000242 00000-0 30416-4 0 9996 2 36799 98.1925 311.7051 0013479 62.2215 298.0367 14.91345962535103 JUGNU 1 37839U 11058B 20142.93571116 .00000296 00000-0 15868-4 0 9996 2 37839 019.9613 083.5747 0019122 096.2946 324.5302 14.12680192445035 SRMSAT 1 37841U 11058D 20142.71168735 .00000295 00000-0 17082-4 0 9993 2 37841 019.9708 148.7102 0011674 310.7490 206.2773 14.10658793444389 AO-71 1 37854U 11061E 20142.87887778 .00001427 00000-0 78956-4 0 9998 2 37854 101.6994 220.4235 0158733 140.8406 220.4421 15.07226087467478 HRBE 1 37855U 11061F 20142.74090917 .00001423 00000-0 77481-4 0 9994 2 37855 101.7130 217.3855 0171394 154.2153 206.7728 15.06239043467181 HORYU-2 1 38340U 12025D 20142.76893331 .00000146 00000-0 29209-4 0 9994 2 38340 098.2825 195.6533 0012712 123.2900 236.9528 14.75848152420619 RS-40 1 38735U 12041C 20142.71852316 -.00000001 00000-0 -79089-4 0 9996 2 38735 082.4807 017.3373 0016213 217.6480 142.3467 12.42579587354539 BEESAT-3 1 39135U 13015F 20142.89234647 .00000587 00000-0 38125-4 0 9996 2 39135 064.8663 027.1943 0037745 252.5563 107.1435 15.18131162391188 BEESAT-2 1 39136U 13015G 20142.86339138 .00000705 00000-0 44651-4 0 9998 2 39136 064.8697 032.1673 0029688 280.8869 078.8916 15.17523186391089 ZACUBE-1 1 39417U 13066B 20142.88507922 .00000170 00000-0 27597-4 0 9992 2 39417 097.5646 142.3865 0059055 006.6467 353.5516 14.81267982351101 TRITON-1 1 39427U 13066M 20142.82733687 .00000149 00000-0 31669-4 0 9997 2 39427 97.7222 105.2375 0113849 162.5481 197.9693 14.67994439347950 GOMX-1 1 39430U 13066Q 20142.85983240 .00000146 00000-0 35913-4 0 9999 2 39430 97.7885 82.9959 0149536 268.4843 89.9236 14.59393587345924 LO-74 1 39440U 13066AA 20142.84771582 .00000166 00000-0 29889-4 0 9990 2 39440 097.6296 126.8216 0081601 067.0370 293.9425 14.76003995348650 AO-73 1 39444U 13066AE 20142.89809294 .00000221 00000-0 33428-4 0 9997 2 39444 097.5591 144.6145 0057935 359.0004 001.1084 14.82118929349439 SPROUT 1 39770U 14029E 20142.85008628 .00000364 00000-0 45937-4 0 9993 2 39770 97.8936 249.2448 0010139 60.9346 299.2880 14.87737815325105 DUCHIFAT-1 1 40021U 14033M 20142.76921056 .00000330 00000-0 39336-4 0 9997 2 40021 97.9422 73.8427 0013517 21.6778 338.5009 14.90892544321911 NANOSATCBR1 1 40024U 14033Q 20142.77724336 .00000169 00000-0 23442-4 0 9994 2 40024 97.9273 70.3174 0012927 26.3541 333.8331 14.90063433321781 DTUSAT-2 1 40030U 14033W 20142.73438394 .00000199 00000-0 27273-4 0 9992 2 40030 97.9036 64.5726 0012675 29.5042 330.6887 14.88706252321549 EO-80 1 40032U 14033Y 20142.81957153 .00000174 00000-0 24719-4 0 9997 2 40032 097.9043 064.6597 0012623 030.0976 330.0964 14.88654654321023 ANTELSAT 1 40034U 14033AA 20142.66013228 .00000169 00000-0 32112-4 0 9998 2 40034 097.7178 359.6349 0060154 085.3661 275.4415 14.74249843317933 VELOX-1 1 40057U 14034E 20142.89242469 .00000254 00000-0 43058-4 0 9996 2 40057 98.2765 279.1347 0009956 225.1610 134.8795 14.77862956317715 DAURIA DX 1 1 40071U 14037C 20142.76867733 .00000060 00000-0 15230-4 0 9994 2 40071 98.4596 319.6968 0007610 215.9796 144.0903 14.81361373317302 HODOYOSHI-1 1 40299U 14070B 20142.80977617 .00000368 00000-0 18021-4 0 9993 2 40299 97.3228 220.1640 0011399 292.6294 207.7885 15.24046100307751 CHUBUSAT-1 1 40300U 14070C 20142.80247111 .00000428 00000-0 21404-4 0 9991 2 40300 97.2880 212.7581 0018598 310.6965 189.7703 15.22486487307451 QSAT-EOS 1 40301U 14070D 20142.85718926 .00001147 00000-0 45895-4 0 9993 2 40301 97.2933 217.9050 0023412 283.5765 212.9657 15.26883427307878 FIREBIRD FU3 1 40377U 15003B 20142.80017904 .00001736 00000-0 69865-4 0 9993 2 40377 099.0965 197.5489 0124678 043.5677 317.5317 15.19996719293259 FIREBIRD FU4 1 40378U 15003C 20142.85053187 .00001746 00000-0 70152-4 0 9994 2 40378 099.0967 197.7064 0124838 043.2689 317.8264 15.20012214293267 GRIFEX 1 40379U 15003D 20142.82244804 .00001432 00000-0 63302-4 0 9991 2 40379 099.1041 189.7443 0134014 067.6395 293.8972 15.16358989292800 NO-84 1 40654U 15025D 20141.39271174 .00009766 00000-0 11583-3 0 9375 2 40654 54.9859 70.0175 0121693 114.7123 246.6737 15.53528739164668 DEORBITSAIL 1 40719U 15032E 20142.74147178 .00000316 00000-0 52028-4 0 9991 2 40719 097.8732 032.0380 0015091 297.9327 062.0355 14.76988129262152 NUDT-PHONESAT 1 40900U 15049B 20142.86936435 .00001641 00000-0 70536-4 0 9992 2 40900 97.4314 154.0541 0014380 79.0172 41.5122 15.24016516259142 XW-2A 1 40903U 15049E 20142.79164626 .00001398 00000-0 33593-4 0 9993 2 40903 97.2905 191.7231 0013234 8.0452 103.4792 15.43006256262363 XW-2C 1 40906U 15049H 20142.85102052 .00000386 00000-0 23466-4 0 9992 2 40906 97.4763 144.5935 0016296 104.5412 14.8842 15.16047842258223 XW-2D 1 40907U 15049J 20142.84877495 .00000476 00000-0 27953-4 0 9997 2 40907 97.4749 144.2940 0015776 101.9172 17.1943 15.16277922258241 LILACSAT-2 1 40908U 15049K 20142.74446485 .00000359 00000-0 23324-4 0 9996 2 40908 97.4901 142.5801 0017353 111.6525 352.4017 15.14027654257959 XW-2E 1 40909U 15049L 20142.91578911 .00000805 00000-0 42348-4 0 9999 2 40909 97.4640 147.7964 0015155 94.1144 329.8050 15.18389989258500 XW-2F 1 40910U 15049M 20142.77894676 .00000864 00000-0 45818-4 0 9994 2 40910 97.4679 146.7597 0016383 92.8520 260.5942 15.17899916258283 XW-2B 1 40911U 15049N 20142.77518366 .00000313 00000-0 19607-4 0 9990 2 40911 97.4761 144.9163 0015703 102.8565 69.5193 15.16202233258128 DCBB 1 40912U 15049P 20142.76049572 .00000777 00000-0 38880-4 0 9996 2 40912 97.4488 150.8633 0016459 74.0369 340.2064 15.20286180258667 TW-1C 1 40926U 15051B 20142.85042999 .00017342 00000-0 17858-3 0 9997 2 40926 97.0867 194.4658 0006785 169.5562 306.6887 15.64881594262860 TW-1A 1 40928U 15051D 20142.87619419 .00002155 00000-0 51607-4 0 9995 2 40928 97.1114 171.3540 0008647 286.8887 197.1306 15.42486819261274 IO-86 1 40931U 15052B 20140.64378432 .00000712 00000-0 10094-4 0 9992 2 40931 5.9930 180.8621 0013303 233.8425 126.0740 14.76635679250997 LQSat 1 40958U 15057A 20142.76351878 .00000005 00000-0 82907-5 0 9994 2 40958 097.8542 207.0041 0016976 232.9321 127.0336 14.73119173248584 ATHENOXAT-1 1 41168U 15077C 20142.69206251 .00001551 00000-0 45395-4 0 9992 2 41168 14.9880 257.7675 0011290 115.4671 244.6819 15.14336274245280 ChubuSat-2 1 41338U 16012B 20142.49007808 .00000246 00000-0 12292-4 0 9996 2 41338 31.0020 157.8104 0013763 209.6199 150.3657 15.00287629233688 ChubuSat-3 1 41339U 16012C 20142.42115211 .00000209 00000-0 94100-5 0 9996 2 41339 31.0111 155.9175 0013518 217.7373 142.2317 15.00452747233676 Horyu-4 1 41340U 16012D 20142.70824982 .00000334 00000-0 18462-4 0 9996 2 41340 031.0040 142.1061 0013930 243.2130 116.7081 15.01488286233856 OUFTI-1 1 41458U 16025C 20142.85383155 .00000973 00000-0 53034-4 0 9991 2 41458 098.1023 252.0259 0162385 299.5277 058.9841 15.06788541223476 e-st@r-II 1 41459U 16025D 20142.89178122 .00000803 00000-0 44952-4 0 9993 2 41459 098.1004 251.5006 0163655 301.2665 057.2612 15.06360077223448 AAUSAT4 1 41460U 16025E 20142.87026116 .00000488 00000-0 28406-4 0 9993 2 41460 098.0947 253.7125 0152638 290.5188 067.9694 15.08626054223631 LO-87 1 41557U 16033B 20142.85679216 .00000993 00000-0 39055-4 0 9995 2 41557 097.4026 233.2550 0013675 175.0649 185.0728 15.27967046221717 NuSat2 1 41558U 16033C 20142.85664747 .00001089 00000-0 40122-4 0 9993 2 41558 097.4078 235.4583 0012805 172.0363 188.1083 15.29945712221827 Lapan A3 1 41603U 16040E 20142.87760028 .00000124 00000-0 89084-5 0 9993 2 41603 97.3113 197.2513 0011951 299.5884 175.0763 15.19832780217104 Swayam 1 41607U 16040J 20142.61238819 .00001114 00000-0 48594-4 0 9997 2 41607 097.3192 202.6135 0011342 283.2312 076.7660 15.24173721217333 Pratham 1 41783U 16059A 20142.73165355 .00000037 00000-0 16345-4 0 9991 2 41783 098.0184 198.9395 0034431 042.3550 318.0301 14.63054865194971 AlSat 1N 1 41789U 16059G 20142.84048832 .00000024 00000-0 13526-4 0 9993 2 41789 98.0215 201.8005 0028966 30.4847 329.8020 14.64318060195135 ScatSat 1 41790U 16059H 20142.84662918 -.00000006 00000-0 92324-5 0 9997 2 41790 98.1631 183.9219 0006337 15.3042 344.8339 14.50910293193368 TY-1 1 41844U 16066D 20142.86238634 .00000695 00000-0 30797-4 0 9999 2 41844 97.4037 151.3306 0016716 79.1685 40.7460 15.24813342196212 Pegasus-1 1 41846U 16066F 20142.70451837 .00000121 00000-0 29683-4 0 9992 2 41846 098.6636 192.4722 0365916 312.9967 044.1079 14.37757303185129 CAS-2T 1 41847U 16066G 20142.76687639 .00000021 00000-0 14500-4 0 9991 2 41847 098.6561 193.0062 0364758 308.5840 048.3190 14.38063823185583 EO-88 1 42017U 17008BX 20142.73801849 .00001203 00000-0 48948-4 0 9992 2 42017 097.3611 210.6887 0007765 064.8774 295.3270 15.26430197181473 CAS-4B 1 42759U 17034B 20142.56898493 .00000022 00000-0 14804-4 0 9998 2 42759 43.0177 174.7644 0011708 228.1625 268.5724 15.09814734161900 CAS-4A 1 42761U 17034D 20142.58119012 -.00000079 00000-0 87040-5 0 9992 2 42761 43.0182 174.0165 0012197 228.4536 270.1695 15.09892420161901 UCLSat 1 42765U 17036A 20142.68797017 .00000960 00000-0 43078-4 0 9996 2 42765 097.3027 197.6459 0012954 116.9676 243.2886 15.23472243162502 NIUSat 1 42766U 17036B 20142.83686895 .00000794 00000-0 37995-4 0 9991 2 42766 097.3022 195.3353 0017164 111.6741 248.6325 15.21678282161649 LituanicaSAT 2 1 42768U 17036D 20142.67438786 .00001767 00000-0 75643-4 0 9992 2 42768 97.3083 197.5641 0016468 108.8534 251.4491 15.23978807161763 Aalto 1 1 42775U 17036L 20142.82281461 .00000629 00000-0 30633-4 0 9999 2 42775 097.3004 195.6696 0015521 110.9541 249.3358 15.21805475161625 URSA MAIOR 1 42776U 17036M 20142.81529271 .00000696 00000-0 33380-4 0 9999 2 42776 097.3016 195.9354 0015343 110.7385 249.5497 15.21984808161634 Max Valier Sat 1 42778U 17036P 20142.79173641 .00000777 00000-0 36327-4 0 9998 2 42778 097.3069 197.1622 0013957 113.4622 246.8083 15.22575360161674 Pegasus 1 42784U 17036V 20142.83921868 .00000925 00000-0 41975-4 0 9992 2 42784 097.3032 197.4932 0013484 117.4651 242.7959 15.23163471161729 NUDATSat 1 42787U 17036Y 20142.91882207 .00001486 00000-0 63310-4 0 9997 2 42787 097.3074 198.9040 0011958 108.4840 251.7696 15.24448543161655 SUCHAI 1 1 42788U 17036Z 20142.67597311 .00001107 00000-0 48899-4 0 9995 2 42788 97.3040 197.8980 0013052 116.4257 243.8321 15.23703384161808 SKCUBE 1 42789U 17036AA 20142.85066720 .00001037 00000-0 46217-4 0 9995 2 42789 097.3035 197.9289 0012933 116.1362 244.1207 15.23549905161744 VZLUSAT 1 1 42790U 17036AB 20142.84196107 .00001408 00000-0 60150-4 0 9993 2 42790 097.3059 198.8259 0012501 114.2292 246.0253 15.24435577161798 VENTA 1 1 42791U 17036AC 20142.82445044 .00000952 00000-0 42662-4 0 9990 2 42791 097.3033 197.9471 0012579 116.6009 243.6519 15.23534902161737 Robusta 1B 1 42792U 17036AD 20142.74206541 .00001050 00000-0 46512-4 0 9997 2 42792 097.3038 198.0661 0012500 116.6864 243.5654 15.23736095161757 D-SAT 1 42794U 17036AF 20142.73730698 .00000096 00000-0 13405-4 0 9997 2 42794 097.4955 176.7138 0127867 094.1853 267.3991 14.91267478158719 TechnoSat 1 42829U 17042E 20142.57472600 .00000096 00000-0 15048-4 0 9996 2 42829 97.5236 25.6121 0014767 20.5762 339.6049 14.91093383155289 QIKCOM-1 1 42983U 98067NF 20142.87606332 .00003161 00000-0 42437-4 0 9995 2 42983 051.6391 079.4577 0003268 329.0395 031.0406 15.61370327146136 AO-91 1 43017U 17073E 20142.73240864 .00000287 00000-0 27428-4 0 9990 2 43017 97.7243 56.0003 0257990 137.1816 224.9811 14.78907917135214 EcAMSat 1 43019U 98067NG 20142.83480995 .00006313 00000-0 66240-4 0 9997 2 43019 51.6414 66.5112 0002926 317.8343 42.2427 15.65856685228625 PICSAT 1 43132U 18004X 20142.72944308 .00001016 00000-0 44401-4 0 9997 2 43132 097.4481 214.2331 0010692 140.2696 219.9327 15.24355230130984 AO-92 1 43137U 18004AC 20142.82842986 .00000815 00000-0 36485-4 0 9991 2 43137 097.4467 214.1682 0010216 141.4071 218.7898 15.24076026130997 TianYi 2 1 43155U 18008A 20142.86244361 .00000913 00000-0 57384-4 0 9992 2 43155 97.4474 212.6292 0016149 237.4209 188.2524 15.11601679128904 Zhou Enlai 1 43156U 18008B 20142.83178354 .00000246 00000-0 18434-4 0 9990 2 43156 97.4522 212.4516 0013268 235.9031 261.8941 15.11136621128856 TianYi 6 1 43158U 18008D 20142.82814795 .00000208 00000-0 16341-4 0 9990 2 43158 97.4456 211.5381 0012172 234.9359 190.1975 15.10675201128806 S-Net G 1 43186U 18014G 20142.84192829 .00000146 00000-0 17841-4 0 9994 2 43186 097.6966 051.1107 0009989 321.7832 038.2680 14.96803693125715 S-Net H 1 43187U 18014H 20142.84174949 .00000154 00000-0 18463-4 0 9998 2 43187 097.6964 051.0897 0009979 321.7064 038.3449 14.96803577125710 S-Net J 1 43188U 18014J 20142.70791496 .00000195 00000-0 22113-4 0 9998 2 43188 97.6967 50.9867 0009976 322.3565 37.6957 14.96803288125691 S-Net K 1 43189U 18014K 20142.84202536 .00000133 00000-0 16714-4 0 9998 2 43189 097.6964 051.0855 0009982 321.7001 038.3511 14.96802764124267 FMN 1 1 43192U 18015A 20142.84201816 .00001611 00000-0 66272-4 0 9999 2 43192 97.4394 272.4678 0015967 177.4039 335.1592 15.25522104127849 Shaonian Xing 1 43199U 18015H 20142.83823788 .00001155 00000-0 48059-4 0 9999 2 43199 97.4167 270.8059 0016744 187.7931 323.5339 15.25702653127904 1KUNS-PF 1 43466U 98067NP 20142.86867681 .00262278 40799-4 44770-3 0 9997 2 43466 051.6256 031.5231 0003579 203.6066 156.4781 16.02032498116265 UBAKUSAT 1 43467U 98067NQ 20142.76403279 .00022571 00000-0 15793-3 0 9996 2 43467 51.6330 58.9710 0000772 90.6826 269.4261 15.74160978115905 EnduroSat One 1 43551U 98067NZ 20141.98476989 .00041244 00000-0 22882-3 0 9996 2 43551 051.6353 061.2303 0003250 035.6712 324.4506 15.79098423106034 EQUISat 1 43552U 98067PA 20142.24102772 .00021608 00000-0 15886-3 0 9991 2 43552 51.6359 68.3387 0004152 16.1497 343.9633 15.73025092105927 UiTMSat 1 1 43589U 98067PD 20142.24662382 .00029766 00000-0 19565-3 0 9990 2 43589 051.6345 066.6958 0004072 038.3234 321.8054 15.75430153101684 Maya 1 1 43590U 98067PE 20142.81029837 .00031217 00000-0 20458-3 0 9994 2 43590 051.6331 063.7152 0004006 037.8772 322.2509 15.75472208101703 Bhutan 1 1 43591U 98067PF 20142.15101645 .00031261 00000-0 20406-3 0 9992 2 43591 051.6365 066.8785 0004186 038.3455 321.7841 15.75562022101606 SiriusSat 1 1 43595U 98067PG 20142.79755457 .00025250 00000-0 18288-3 0 9998 2 43595 051.6333 068.1615 0001772 031.9377 328.1729 15.73276715100820 SiriusSat 2 1 43596U 98067PH 20142.85749075 .00024932 00000-0 18144-3 0 9992 2 43596 051.6336 068.6344 0001802 017.1127 342.9932 15.73172574100829 Tanusha-3 1 43597U 98067PJ 20142.80207087 .00058719 00000-0 27790-3 0 9997 2 43597 051.6303 057.5312 0002099 077.4723 282.6514 15.82415497100961 SurfSat 1 43614U 18070B 20142.74856544 .00002373 00000-0 61242-4 0 9990 2 43614 093.0193 143.5525 0018272 082.3256 278.0072 15.39064526094376 CP-7 DAVE 1 43615U 18070C 20142.64747515 .00002100 00000-0 54467-4 0 9996 2 43615 093.0200 143.5028 0018361 082.0409 278.2928 15.38925291094354 ELFIN-B 1 43616U 18070D 20142.71094644 .00003527 00000-0 87537-4 0 9991 2 43616 093.0155 143.4632 0018927 083.6392 276.7018 15.40214034094408 ELFIN-A 1 43617U 18070E 20142.74734503 .00003455 00000-0 85310-4 0 9997 2 43617 093.0208 143.9679 0018286 080.9211 279.4112 15.40385495094418 STARS-Me Mother 1 43640U 98067PQ 20142.23157187 .00010706 00000-0 11159-3 0 9994 2 43640 51.6351 86.2707 0003026 304.0073 56.0634 15.65146135 92460 CubeBel 1 1 43666U 18083E 20142.81166303 .00000866 00000-0 45569-4 0 9995 2 43666 97.4908 169.5385 0016676 92.7427 17.1290 15.18211475 86579 Changshagaoxin 1 43669U 18083H 20142.83503797 .00000605 00000-0 33710-4 0 9998 2 43669 097.4786 167.8358 0012618 087.2796 272.9881 15.17257391086491 Ten-Koh 1 43677U 18084G 20142.83384570 .00000010 00000-0 68720-5 0 9994 2 43677 097.8793 259.9648 0014734 243.8499 116.1203 14.90281201084973 PO-101 1 43678U 18084H 20142.84267161 .00000389 00000-0 44435-4 0 9997 2 43678 97.8796 261.2526 0008478 264.7686 95.2551 14.91631952 85052 IRVINE 01 1 43693U 18088D 20142.87885955 .00002533 00000-0 10629-3 0 9998 2 43693 085.0345 094.6011 0019446 035.8122 324.4419 15.22765329084807 QO-100 1 43700U 18090A 20142.85684352 .00000155 00000-0 00000-0 0 9993 2 43700 000.0143 293.8036 0000928 131.1281 149.3227 01.00267281005449 Reaktor Hello World 1 43743U 18096AA 20142.76453401 .00000963 00000-0 38643-4 0 9990 2 43743 097.4218 216.7727 0016845 218.0244 141.9807 15.27350253082329 MinXSS-2 1 43758U 18099A 20142.77166701 -.00000042 00000-0 14252-5 0 9994 2 43758 097.7074 215.1460 0014028 279.5786 080.3849 14.95651792079963 AO-95 1 43770U 18099N 20142.73577545 .00000451 00000-0 46521-4 0 9992 2 43770 97.7065 214.5800 0013058 287.7304 72.2491 14.94972525 79925 RANGE-B 1 43772U 18099Q 20142.75935217 .00000525 00000-0 53005-4 0 9997 2 43772 097.7134 215.0819 0012494 273.6078 086.3714 14.95160044079925 RANGE-A 1 43773U 18099R 20142.72607582 .00000089 00000-0 13350-4 0 9990 2 43773 097.7007 214.2321 0012049 273.6814 086.3028 14.94955009079917 MOVE-II 1 43780U 18099Y 20142.75895600 .00000589 00000-0 58541-4 0 9997 2 43780 097.7070 214.7955 0011851 285.4510 074.5401 14.95378156079925 SNUSat 2 1 43782U 18099AA 20142.70181750 -.00000001 00000-0 51320-5 0 9997 2 43782 097.7064 214.7489 0011141 273.7604 086.2342 14.95244934079928 SnugLite 1 43784U 18099AC 20142.73886596 .00000551 00000-0 55089-4 0 9996 2 43784 97.7027 214.6190 0013528 281.5935 78.3767 14.95338213 79941 ITASat 1 1 43786U 18099AE 20142.73877170 .00000472 00000-0 48040-4 0 9997 2 43786 097.7081 214.9833 0013664 280.6181 079.3501 14.95314016079946 EAGLET 1 1 43790U 18099AJ 20142.73756072 .00000401 00000-0 41212-4 0 9995 2 43790 97.7069 215.2250 0012022 285.8900 74.0996 14.95694560 79650 ESEO 1 43792U 18099AL 20142.81295169 .00000502 00000-0 50326-4 0 9999 2 43792 097.7046 215.1366 0011708 282.4115 077.5795 14.95593933079720 CSIM 1 43793U 18099AM 20142.73165053 .00000455 00000-0 45631-4 0 9999 2 43793 097.7035 215.0222 0011453 278.4333 081.5590 14.96021819079697 Astrocast 0.1 1 43798U 18099AS 20142.73003618 .00000096 00000-0 13749-4 0 9998 2 43798 97.7063 215.3112 0011032 263.0797 96.9169 14.95859546 79957 JO-97 1 43803U 18099AX 20142.68952273 .00000574 00000-0 57004-4 0 9992 2 43803 097.7044 214.7601 0013475 281.6113 078.3595 14.95490431079939 Suomi 100 1 43804U 18099AY 20142.75706396 .00000527 00000-0 52795-4 0 9994 2 43804 097.7043 214.8161 0013567 281.4974 078.4723 14.95480126079952 Al Farabi 2 1 43805U 18099AZ 20142.86719781 .00000443 00000-0 45087-4 0 9992 2 43805 097.7045 215.0008 0013717 280.4582 079.5093 14.95593128079970 PWSat 2 1 43814U 18099BJ 20142.73108087 .00019997 00000-0 11922-2 0 9992 2 43814 097.7861 222.9293 0005054 213.7529 146.3379 15.11195438079683 CHOMPTT 1 43855U 18104G 20142.89138393 .00000635 00000-0 25159-4 0 9992 2 43855 085.0407 192.7781 0018551 142.6631 217.5904 15.22930447079482 ISAT 1 43879U 18111D 20142.88142108 .00000499 00000-0 49332-4 0 9991 2 43879 097.7040 050.7369 0012554 339.8671 020.2053 14.96224529076508 UWE-4 1 43880U 18111E 20142.79932418 -.00000033 00000-0 22304-5 0 9990 2 43880 97.7050 50.9114 0011925 340.7797 19.2973 14.96455420 74505 Sparrow 1 43881U 18111F 20142.84937735 -.00000168 00000-0 -96395-5 0 9995 2 43881 097.7062 051.0290 0012120 340.1199 019.9548 14.96519155076518 Lume 1 1 43908U 18111AJ 20142.80230493 .00000769 00000-0 33518-4 0 9990 2 43908 097.2682 043.5190 0019746 234.9992 124.9393 15.24992804077961 FO-98 1 43933U 19003B 20142.76496699 .00000553 00000-0 27018-4 0 9995 2 43933 097.2324 193.5227 0017204 341.4055 018.6551 15.22079294074475 FO-99 1 43937U 19003F 20142.77524654 .00000934 00000-0 40780-4 0 9997 2 43937 097.2285 194.6979 0022862 322.3997 037.5642 15.24330477074577 Delphini 1 1 44030U 98067PW 20142.59013981 .00015596 00000-0 15873-3 0 9999 2 44030 051.6343 090.9241 0003918 006.3118 353.7926 15.65336442074308 MYSat 1 1 44045U 18092F 20142.59161588 .00001926 00000-0 63852-4 0 9995 2 44045 051.6465 172.6958 0011033 224.9704 135.0388 15.36566305071163 AstroCast 0.2 1 44083U 19018F 20142.72147405 .00000559 00000-0 27859-4 0 9991 2 44083 97.4226 204.1340 0011469 265.0636 94.9290 15.21574063 63314 AISTechSat 3 1 44103U 19018AB 20142.88766793 .00000533 00000-0 25541-4 0 9996 2 44103 97.4106 204.4502 0011551 282.2266 134.7077 15.23121416 63395 AISat 1 1 44104U 19018AC 20142.76641293 .00000502 00000-0 18684-4 0 9997 2 44104 097.4650 212.2692 0056841 308.7196 050.8971 15.31020230063723 Raavana-1 1 44329U 98067QE 20142.31166695 .00008080 00000-0 11463-3 0 9992 2 44329 51.6379 110.1768 0004740 266.3956 93.6494 15.57418597 52779 Uguisu 1 44330U 98067QF 20142.90029809 .00008070 00000-0 11476-3 0 9997 2 44330 051.6381 107.3541 0004801 266.5982 093.4460 15.57356742052842 NepaliSat-1 1 44331U 98067QG 20142.62536313 .00007638 00000-0 10860-3 0 9995 2 44331 051.6377 108.5210 0004876 269.1865 090.8569 15.57452764052814 Prox-1 1 44339U 19036A 20142.68860311 .00000828 00000-0 14686-3 0 9990 2 44339 024.0045 280.3032 0010659 222.3000 137.6692 14.52981216048238 Oculus-ASR 1 44348U 19036K 20142.55330627 .00006544 00000-0 94982-4 0 9997 2 44348 028.5188 199.6491 0368655 020.9577 340.5707 15.02176727049758 Armadillo 1 44352U 19036P 20142.48261025 .00008161 00000-0 11853-3 0 9991 2 44352 028.5331 196.5083 0356956 025.3641 336.4026 15.04747153049733 NO-104 1 44354U 19036R 20142.50323069 .00006398 00000-0 91048-4 0 9998 2 44354 028.5288 197.5508 0365629 023.3388 338.3357 15.03170063049762 NO-103 1 44355U 19036S 20142.47219270 .00011212 00000-0 15541-3 0 9997 2 44355 28.5283 190.4667 0345785 34.8776 327.3970 15.08220140 49828 CP9 1 44360U 19036X 20142.47567556 .00020148 -53999-5 22385-3 0 9999 2 44360 028.5126 178.0958 0329318 055.7118 307.4203 15.14977945049839 Move-IIb 1 44398U 19038N 20142.88733007 .00000777 00000-0 48437-4 0 9995 2 44398 097.5343 104.4614 0024047 216.2178 143.7425 15.12271583048569 SONATE 1 44400U 19038Q 20142.84938025 .00000365 00000-0 24988-4 0 9990 2 44400 097.5379 104.4413 0024191 214.7151 145.2501 15.11932530048559 BeeSat 9 1 44412U 19038AC 20142.86962006 .00000532 00000-0 34441-4 0 9992 2 44412 097.5366 104.5371 0021557 220.1064 139.8576 15.12261539048252 JAISAT-1 1 44419U 19038F 20142.83225098 .00000628 00000-0 39458-4 0 9998 2 44419 097.5367 104.7444 0020415 219.2209 140.7543 15.12744511048571 LightSail-2 1 44420U 19036AC 20142.78984911 .00004817 00000-0 10370-2 0 9992 2 44420 024.0089 276.2802 0013646 230.1499 129.7812 14.55471653046432 Taurus 1 1 44530U 19059C 20142.87672242 .00001375 00000-0 40246-3 0 9992 2 44530 098.5677 223.7076 0013872 233.5977 126.3950 14.45496936036505 MO-106 1 44830U 19084G 20142.68398008 .00045099 00000-0 28410-3 0 9997 2 44830 096.9785 011.6275 0026406 343.5150 016.5254 15.76053219026231 TRSI-Sat 1 44831U 19084H 20141.60835092 .00040510 00000-0 25837-3 0 9991 2 44831 96.9795 10.5561 0026731 347.1745 12.8838 15.75777612 26078 MO-105 1 44832U 19084J 20142.70071519 .00046987 00000-0 28353-3 0 9990 2 44832 096.9789 011.7668 0025074 342.0149 018.0229 15.77069958026244 Duchifat 3 1 44854U 19089C 20142.71787342 .00000248 00000-0 26438-4 0 9991 2 44854 36.9661 256.3507 0008030 216.9569 143.0615 14.99052276 24286 OPS-SAT 1 44878U 19092F 20142.62786820 -.00000066 00000-0 00000 0 0 9992 2 44878 97.4688 326.3588 0015728 90.6659 269.6439 15.15435648 23475 FloripaSat 1 1 44885U 19093G 20142.85781599 .00000192 00000-0 30943-4 0 9997 2 44885 097.9580 219.2080 0015877 131.2067 229.0513 14.82021183022768 RS-44 1 44909U 19096E 20142.69789166 .00000009 00000-0 00000 0 0 9990 2 44909 82.5231 13.0953 0216290 289.2486 68.5329 12.79707182 18768 SwampSat-2 1 45115U 19071E 20142.38386434 .00008568 00000-0 26034-3 0 9997 2 45115 051.6403 133.7129 0013453 323.2258 036.7801 15.34803314016963 HO-107 1 45119U 19071J 20142.67899622 .00000907 00000-0 39123-4 0 9994 2 45119 51.6429 132.6753 0012118 319.6623 40.3459 15.33481858 17019 Phoenix 1 45258U 98067RB 20142.83146709 .00002954 00000-0 58415-4 0 9998 2 45258 051.6404 118.1440 0005443 244.0808 115.9621 15.50659893014345 AztechSat-1 1 45261U 98067RE 20142.35523829 .00006264 00000-0 11193-3 0 9990 2 45261 051.6403 120.2177 0007076 262.4473 097.5713 15.51426200014303 QARMAN 1 45263U 98067RG 20142.83106497 .00005021 00000-0 93105-4 0 9997 2 45263 051.6405 118.1440 0006605 260.6542 099.3701 15.50852349014404 Quetzal 1 1 45598U 98067RL 20142.82575136 .00004856 00000-0 92954-4 0 9993 2 45598 051.6410 118.8552 0003303 002.0068 358.0934 15.50018444003664 /EX